Content
SEND FEEDBACK

Daily
Averages
Monthly
Summary
United States of America

FLATONIA, TEXAS


Home > North America > United States > Texas
Elevation: 523 feet     Latitude: 29 40N     Longitude: 097 07W

WEATHER
 
SELECT A DAY
Number of Records: 315,244;   Date Range: 11/13/01 - 12/24/14
 
SHARE

PRINT THIS DATA

[ ← Previous Day ]
WEATHER ALMANAC - JANUARY 31, 2013
[ Next Day → ]
[ °C ]   °F
Weather ElementAverageHighLow
Temperature50.6 °F68 °F (2:35 pm)32 °F (5:35 am)
Dewpoint29.5 °F41 °F (11:35 pm)17.6 °F (4:35 pm)
Humidity53 %100 % (5:35 am)15 % (4:35 pm)
Barometer30.24 in30.30 in (9:35 am)30.18 in (5:35 pm)
Wind Speed4.5 mph11.5 mph (12:15 pm)
Wind Gust17.3 mph (11:35 am)
Weather ElementAverage
Visibility10 mi
Wind DirectionSSE (140.9 °)

Weather ElementTotal
Precipitation---
Heating Degree Days15 (Base 65)
Averaged from 70 records on January 31, 2013
WEATHER CONDITIONS BREAKOUT
WIND DIRECTION BREAKOUT
WEATHER BY HOUR - JANUARY 31, 2013
[ °C ]   °F
Local TimeTemperatureDewpointHumidityBarometerVisibilityWind DirectionWind SpeedGust SpeedPrecipitationEventsConditions
12:35 AM39.2 °F32.0 °F75 %30.24 in10.0 miCalmClear
12:55 AM41.0 °F32.0 °F70 %30.22 in10.0 miCalmClear
1:15 AM35.6 °F32.0 °F87 %30.22 in10.0 miCalmClear
1:35 AM37.4 °F32.0 °F81 %30.21 in10.0 miCalmClear
1:55 AM35.6 °F32.0 °F87 %30.21 in10.0 miCalmClear
2:15 AM35.6 °F32.0 °F87 %30.21 in10.0 miCalmClear
2:35 AM35.6 °F32.0 °F87 %30.20 in10.0 miCalmClear
2:55 AM35.6 °F32.0 °F87 %30.20 in10.0 miCalmClear
3:15 AM35.6 °F32.0 °F87 %30.20 in10.0 miCalmClear
3:35 AM35.6 °F32.0 °F87 %30.20 in10.0 miCalmClear
3:55 AM35.6 °F32.0 °F87 %30.20 in10.0 miCalmClear
4:15 AM33.8 °F32.0 °F93 %30.19 in10.0 miCalmClear
4:35 AM33.8 °F32.0 °F93 %30.19 in10.0 miCalmClear
4:55 AM33.8 °F32.0 °F93 %30.20 in10.0 miCalmClear
5:15 AM33.8 °F32.0 °F93 %30.20 in10.0 miCalmClear
5:35 AM32.0 °F32.0 °F100 %30.21 in10.0 miCalmClear
5:55 AM33.8 °F32.0 °F93 %30.22 in10.0 miCalmClear
6:15 AM32.0 °F32.0 °F100 %30.22 in10.0 miCalmClear
6:55 AM35.6 °F30.2 °F81 %30.24 in10.0 miSW (230°)3.5 mphClear
7:15 AM35.6 °F30.2 °F81 %30.25 in10.0 miSW (230°)4.6 mphClear
7:35 AM35.6 °F30.2 °F81 %30.26 in10.0 miSW (230°)3.5 mphClear
7:55 AM35.6 °F30.2 °F81 %30.26 in10.0 miCalmClear
8:15 AM37.4 °F30.2 °F75 %30.27 in10.0 miSW (230°)4.6 mphClear
8:35 AM41.0 °F32.0 °F70 %30.28 in10.0 miSW (230°)4.6 mphClear
8:55 AM41.0 °F30.2 °F65 %30.28 in10.0 miSW (220°)5.8 mphClear
9:15 AM42.8 °F32.0 °F66 %30.29 in10.0 miSW (230°)3.5 mphClear
9:35 AM44.6 °F32.0 °F61 %30.30 in10.0 miSW (220°)4.6 mphClear
9:55 AM48.2 °F32.0 °F54 %30.30 in10.0 miSW (230°)5.8 mphClear
10:15 AM51.8 °F32.0 °F47 %30.30 in10.0 miWSW (240°)4.6 mphClear
10:35 AM55.4 °F32.0 °F41 %30.30 in10.0 miSW (230°)5.8 mphClear
10:55 AM59.0 °F30.2 °F34 %30.29 in10.0 miSW (220°)8.1 mphClear
11:15 AM59.0 °F28.4 °F31 %30.30 in10.0 miSW (230°)10.4 mphClear
11:35 AM60.8 °F26.6 °F27 %30.29 in10.0 miSSW (210°)10.4 mph17.3 mphClear
11:55 AM60.8 °F28.4 °F29 %30.29 in10.0 miSW (230°)9.2 mph16.1 mphClear
12:15 PM62.6 °F28.4 °F27 %30.29 in10.0 miSW (220°)11.5 mph16.1 mphClear
12:35 PM64.4 °F26.6 °F24 %30.27 in10.0 miSW (220°)9.2 mphClear
12:55 PM64.4 °F24.8 °F22 %30.26 in10.0 miWSW (240°)9.2 mphClear
1:15 PM64.4 °F23.0 °F21 %30.25 in10.0 miSW (230°)10.4 mphClear
1:35 PM66.2 °F23.0 °F19 %30.23 in10.0 miWSW (250°)10.4 mphClear
1:55 PM66.2 °F23.0 °F19 %30.22 in10.0 miSW (220°)9.2 mphClear
2:15 PM66.2 °F23.0 °F19 %30.21 in10.0 miSSW (210°)5.8 mph9.2 mphClear
2:35 PM68.0 °F21.2 °F17 %30.21 in10.0 miSSW (210°)10.4 mph16.1 mphClear
2:55 PM68.0 °F21.2 °F17 %30.19 in10.0 miSW (220°)8.1 mphClear
3:15 PM68.0 °F21.2 °F17 %30.19 in10.0 miSSW (210°)6.9 mphClear
3:35 PM68.0 °F19.4 °F16 %30.19 in10.0 miWSW (240°)9.2 mphClear
3:55 PM68.0 °F21.2 °F17 %30.19 in10.0 miSW (220°)3.5 mphClear
4:15 PM68.0 °F19.4 °F16 %30.19 in10.0 miSSW (210°)5.8 mphClear
4:35 PM68.0 °F17.6 °F15 %30.19 in10.0 miSW (230°)9.2 mphClear
4:55 PM68.0 °F19.4 °F16 %30.19 in10.0 miWSW (240°)6.9 mphClear
5:15 PM68.0 °F19.4 °F16 %30.19 in10.0 miSW (220°)5.8 mphClear
5:35 PM66.2 °F23.0 °F19 %30.18 in10.0 miSSW (200°)6.9 mphClear
5:55 PM64.4 °F23.0 °F21 %30.18 in10.0 miSouth (190°)3.5 mphClear
6:15 PM62.6 °F23.0 °F22 %30.18 in10.0 miCalmClear
6:35 PM60.8 °F23.0 °F23 %30.18 in10.0 miCalmClear
6:55 PM55.4 °F30.2 °F38 %30.20 in10.0 miCalmClear
7:15 PM51.8 °F33.8 °F50 %30.21 in10.0 miCalmClear
7:35 PM50.0 °F32.0 °F50 %30.23 in10.0 miCalmClear
7:55 PM51.8 °F30.2 °F44 %30.24 in10.0 miSSW (210°)3.5 mphClear
8:15 PM51.8 °F32.0 °F47 %30.24 in7.0 miSouth (170°)6.9 mphClear
8:35 PM51.8 °F32.0 °F47 %30.25 in10.0 miSouth (180°)6.9 mphClear
8:55 PM51.8 °F32.0 °F47 %30.25 in10.0 miSouth (170°)6.9 mphClear
9:15 PM53.6 °F33.8 °F47 %30.27 in10.0 miSouth (170°)4.6 mphClear
9:35 PM51.8 °F33.8 °F50 %30.27 in10.0 miSouth (190°)5.8 mphClear
9:55 PM51.8 °F35.6 °F54 %30.27 in10.0 miSouth (180°)5.8 mphClear
10:15 PM53.6 °F37.4 °F54 %30.27 in10.0 miSSW (200°)5.8 mphClear
10:35 PM53.6 °F37.4 °F54 %30.27 in10.0 miSSW (200°)5.8 mphClear
10:55 PM53.6 °F37.4 °F54 %30.27 in10.0 miSSW (210°)5.8 mphClear
11:15 PM53.6 °F39.2 °F58 %30.28 in10.0 miSSW (200°)8.1 mphClear
11:35 PM53.6 °F41.0 °F62 %30.27 in10.0 miSSW (200°)6.9 mphClear
11:55 PM53.6 °F41.0 °F62 %30.27 in10.0 miSouth (190°)8.1 mphClear
Hourly data recorded from K3T5, located miles away from Flatonia, Texas







STORIES FROM OUR PARTNERS